CW2157 Weather Reports


Display with metric or nautical units.
time (UTC)temp
F
wind
direction
speed
MPH
gust
MPH
rain 1hr
in
rain 24hr
in
rain mn
in
humidity
%
barometer
mb
20260504034205 48 205 9.0 12.0 0.00 0.00 0.00 79 1014.2
20260504033705 47 202 7.0 10.0 0.00 0.00 0.00 78 1014.2
20260504033205 47 199 5.0 7.0 0.00 0.00 0.00 77 1014.2
20260504031705 47 122 1.0 2.0 0.00 0.00 0.00 77 1014.0
20260504031205 47 25 0.0 1.0 0.00 0.00 0.00 76 1014.0
20260504030705 47 25 0.0 1.0 0.00 0.00 0.00 76 1014.1
20260504025705 47 25 0.0 1.0 0.00 0.00 0.00 76 1014.0
20260504025205 48 25 0.0 0.0 0.00 0.00 0.00 76 1014.0
20260504024705 48 25 1.0 2.0 0.00 0.00 0.00 76 1014.0
20260504024205 48 25 1.0 2.0 0.00 0.00 0.00 75 1014.0
20260504022705 48 15 0.0 0.0 0.00 0.00 0.00 73 1014.0
20260504022205 48 15 0.0 0.0 0.00 0.00 0.00 72 1014.0
20260504021705 48 15 0.0 1.0 0.00 0.00 0.00 72 1013.9
20260504021205 48 15 0.0 1.0 0.00 0.00 0.00 72 1013.9
20260504020705 49 15 0.0 1.0 0.00 0.00 0.00 72 1013.9
20260504020205 49 15 0.0 0.0 0.00 0.00 0.00 72 1013.9
20260504015705 49 15 0.0 0.0 0.00 0.00 0.00 72 1014.0
20260504015205 49 15 0.0 0.0 0.00 0.00 0.00 72 1014.0
20260504014705 50 15 0.0 0.0 0.00 0.00 0.00 71 1013.9
20260504013205 50 15 0.0 1.0 0.00 0.00 0.00 67 1013.8
20260504012705 51 331 0.0 0.0 0.00 0.00 0.00 67 1013.7
20260504012206 51 321 0.0 1.0 0.00 0.00 0.00 68 1013.6
20260504011705 51 321 0.0 0.0 0.00 0.00 0.00 67 1013.5
20260504010205 52 291 0.0 1.0 0.00 0.00 0.00 64 1013.6
20260504005705 52 290 0.0 0.0 0.00 0.00 0.00 64 1013.6
20260504004206 54 290 0.0 0.0 0.00 0.00 0.00 59 1013.4
20260504003706 54 290 0.0 0.0 0.00 0.00 0.00 55 1013.3
20260504003206 54 290 0.0 0.0 0.00 0.00 0.00 54 1013.3
20260504002706 54 290 0.0 0.0 0.00 0.00 0.00 55 1013.2
20260504002205 55 290 0.0 0.0 0.00 0.00 0.00 54 1013.2
20260504001205 55 290 0.0 1.0 0.00 0.00 0.00 49 1013.1
20260504000205 56 261 0.0 0.0 0.00 0.00 0.00 48 1013.1
20260503235705 56 261 0.0 0.0 0.00 0.00 0.00 46 1012.9
20260503235205 57 261 0.0 1.0 0.00 0.00 0.00 45 1012.9
20260503234205 57 261 0.0 2.0 0.00 0.00 0.00 43 1012.7
20260503233705 57 260 0.0 2.0 0.00 0.00 0.00 43 1012.7
20260503233205 58 258 0.0 3.0 0.00 0.00 0.00 42 1012.7
20260503232705 58 231 1.0 2.0 0.00 0.00 0.00 41 1012.8
20260503232205 58 273 1.0 3.0 0.00 0.00 0.00 42 1012.7
20260503231705 58 254 1.0 3.0 0.00 0.00 0.00 40 1012.7
20260503231205 58 227 2.0 5.0 0.00 0.00 0.00 40 1012.7
20260503230705 59 310 0.0 2.0 0.00 0.00 0.00 41 1012.7
20260503230205 59 277 1.0 7.0 0.00 0.00 0.00 40 1012.8
20260503225205 59 281 2.0 3.0 0.00 0.00 0.00 42 1012.7
20260503224705 59 310 1.0 3.0 0.00 0.00 0.00 40 1012.7
20260503224205 59 231 2.0 6.0 0.00 0.00 0.00 40 1012.7
20260503223705 59 269 1.0 6.0 0.00 0.00 0.00 39 1012.7
20260503223205 59 282 2.0 6.0 0.00 0.00 0.00 39 1012.7
20260503222705 59 295 1.0 3.0 0.00 0.00 0.00 39 1012.6
20260503222204 60 242 1.0 7.0 0.00 0.00 0.00 39 1012.7
20260503221705 60 247 2.0 3.0 0.00 0.00 0.00 37 1012.7
20260503221205 60 275 2.0 8.0 0.00 0.00 0.00 38 1012.8
20260503220705 60 281 3.0 10.0 0.00 0.00 0.00 38 1012.8
20260503220204 60 274 2.0 9.0 0.00 0.00 0.00 38 1012.9
20260503215706 61 256 2.0 8.0 0.00 0.00 0.00 37 1012.9
20260503215205 61 248 3.0 12.0 0.00 0.00 0.00 37 1012.8
20260503214705 61 229 3.0 8.0 0.00 0.00 0.00 35 1012.7
20260503214205 62 315 3.0 8.0 0.00 0.00 0.00 36 1012.7
20260503213205 63 266 5.0 13.0 0.00 0.00 0.00 34 1012.8
20260503212705 63 288 3.0 8.0 0.00 0.00 0.00 36 1012.8
20260503211705 63 219 6.0 12.0 0.00 0.00 0.00 34 1012.8
20260503211205 63 242 6.0 17.0 0.00 0.00 0.00 38 1012.7
20260503210205 63 251 4.0 14.0 0.00 0.00 0.00 35 1012.9
20260503205704 63 245 5.0 10.0 0.00 0.00 0.00 35 1012.8
20260503205205 63 237 2.0 5.0 0.00 0.00 0.00 41 1012.9
20260503204705 63 309 2.0 13.0 0.00 0.00 0.00 39 1012.9
20260503204205 63 338 2.0 7.0 0.00 0.00 0.00 37 1013.0
20260503203705 63 226 4.0 13.0 0.00 0.00 0.00 36 1013.0
20260503203205 63 242 4.0 13.0 0.00 0.00 0.00 35 1013.0
20260503202205 63 229 5.0 15.0 0.00 0.00 0.00 38 1013.1
20260503201205 63 242 5.0 16.0 0.00 0.00 0.00 40 1013.3
20260503200705 62 210 6.0 12.0 0.00 0.00 0.00 40 1013.3
20260503195705 62 215 6.0 14.0 0.00 0.00 0.00 39 1013.5
20260503195205 61 211 6.0 14.0 0.00 0.00 0.00 39 1013.4
20260503194705 61 263 5.0 14.0 0.00 0.00 0.00 38 1013.6
20260503194205 61 344 2.0 8.0 0.00 0.00 0.00 37 1013.5
20260503193705 61 346 5.0 14.0 0.00 0.00 0.00 38 1013.7
20260503193205 61 304 2.0 10.0 0.00 0.00 0.00 41 1013.7
20260503192705 61 352 6.0 15.0 0.00 0.00 0.00 42 1013.9
20260503191205 61 230 7.0 12.0 0.00 0.00 0.00 40 1013.9
20260503190705 61 107 4.0 15.0 0.00 0.00 0.00 43 1013.9
20260503185705 61 216 7.0 14.0 0.00 0.00 0.00 40 1014.1
20260503184704 61 348 6.0 12.0 0.00 0.00 0.00 39 1014.2
20260503184205 61 234 10.0 20.0 0.00 0.00 0.00 42 1014.2
20260503183705 60 230 11.0 17.0 0.00 0.00 0.00 40 1014.3
20260503183205 60 242 9.0 20.0 0.00 0.00 0.00 39 1014.3
20260503182705 60 246 9.0 14.0 0.00 0.00 0.00 40 1014.3
20260503181705 60 303 5.0 14.0 0.00 0.00 0.00 39 1014.3
20260503181204 60 305 5.0 14.0 0.00 0.00 0.00 46 1014.3
20260503180205 59 230 5.0 13.0 0.00 0.00 0.00 41 1014.3
20260503175205 58 351 7.0 13.0 0.00 0.00 0.00 41 1014.3
20260503174705 58 343 8.0 17.0 0.00 0.00 0.00 41 1014.4
20260503174205 58 329 3.0 12.0 0.00 0.00 0.00 44 1014.3
20260503173705 58 1 9.0 13.0 0.00 0.00 0.00 38 1014.3
20260503173205 59 336 7.0 15.0 0.00 0.00 0.00 38 1014.6
20260503172705 58 353 3.0 9.0 0.00 0.00 0.00 41 1014.6
20260503172205 58 353 6.0 12.0 0.00 0.00 0.00 38 1014.6
20260503171704 58 331 1.0 12.0 0.00 0.00 0.00 40 1014.6
20260503171205 58 14 3.0 9.0 0.00 0.00 0.00 45 1014.6
20260503170705 58 254 3.0 8.0 0.00 0.00 0.00 40 1014.7
20260503170205 57 243 7.0 13.0 0.00 0.00 0.00 40 1014.7
20260503160205 56 330 7.0 12.0 0.00 0.00 0.00 41 1015.1
20260503150704 54 14 3.0 13.0 0.00 0.00 0.00 47 1015.1
20260503150205 54 313 6.0 10.0 0.00 0.00 0.00 44 1015.2
20260503140205 52 326 7.0 14.0 0.00 0.00 0.00 49 1015.2
20260503131205 50 321 7.0 15.0 0.00 0.00 0.00 53 1015.1
20260503130704 50 309 6.0 14.0 0.00 0.00 0.00 56 1015.1
20260503130205 50 156 4.0 10.0 0.00 0.00 0.00 55 1015.0
20260503120205 48 310 4.0 12.0 0.00 0.00 0.00 59 1014.4
20260503110205 45 318 5.0 15.0 0.00 0.00 0.00 62 1013.8
20260503090204 46 84 3.0 13.0 0.00 0.00 0.00 64 1012.4
20260503081205 47 229 5.0 12.0 0.00 0.00 0.00 64 1012.1
20260503080704 47 234 5.0 13.0 0.00 0.00 0.00 64 1012.0
20260503080205 47 341 3.0 9.0 0.00 0.00 0.00 65 1012.0
20260503072705 48 300 2.0 12.0 0.00 0.00 0.00 62 1011.6
20260503072204 48 355 2.0 17.0 0.00 0.00 0.00 61 1011.5
20260503071705 48 302 4.0 10.0 0.00 0.00 0.00 61 1011.5
20260503071205 48 339 2.0 9.0 0.00 0.00 0.00 61 1011.4
20260503070705 48 303 4.0 12.0 0.00 0.00 0.00 62 1011.3
20260503070205 48 336 5.0 9.0 0.00 0.00 0.00 62 1011.3
20260503060205 50 315 2.0 9.0 0.00 0.00 0.00 56 1011.2
20260503054704 50 354 2.0 12.0 0.00 0.00 0.00 55 1011.4
20260503054204 50 282 2.0 12.0 0.00 0.00 0.00 55 1011.3
20260503053705 50 3 5.0 12.0 0.00 0.00 0.00 55 1011.3
20260503053205 50 358 3.0 12.0 0.00 0.00 0.00 55 1011.3
20260503052704 50 354 4.0 12.0 0.00 0.00 0.00 54 1011.4
20260503052205 51 356 5.0 12.0 0.00 0.00 0.00 54 1011.4
20260503051704 51 356 5.0 13.0 0.00 0.00 0.00 53 1011.5
20260503051204 51 349 6.0 13.0 0.00 0.00 0.00 55 1011.4
20260503050705 51 334 5.0 15.0 0.00 0.00 0.00 54 1011.2
20260503050205 51 339 3.0 12.0 0.00 0.00 0.00 55 1011.3
20260503045204 52 350 2.0 13.0 0.00 0.00 0.00 55 1011.4
20260503044704 52 345 0.0 10.0 0.00 0.00 0.00 54 1011.5
20260503044204 52 344 6.0 13.0 0.00 0.00 0.00 54 1011.4
20260503043704 52 339 4.0 8.0 0.00 0.00 0.00 56 1011.4
20260503043205 53 358 6.0 12.0 0.00 0.00 0.00 55 1011.3
20260503042204 53 340 3.0 12.0 0.00 0.00 0.00 53 1011.3
20260503041705 53 336 5.0 12.0 0.00 0.00 0.00 54 1011.3
20260503041205 53 335 6.0 13.0 0.00 0.00 0.00 53 1011.3
20260503040204 54 350 5.0 14.0 0.00 0.00 0.00 52 1011.3
20260503035705 54 354 6.0 14.0 0.00 0.00 0.00 50 1011.4
20260503035205 54 357 9.0 15.0 0.00 0.00 0.00 50 1011.4
20260503034704 54 344 8.0 17.0 0.00 0.00 0.00 50 1011.4